Location: Vancouver
(49.2827°N, 123.1207°W)
Time: 02:51:21
(UTC-07:00)

ISS - Visible Passes

Search period start: 21 May 2024 00:00
Search period end: 31 May 2024 00:00
Orbit: 409 x 414 km, 51.6° (Epoch: 21 May)

Date Brightness Start Highest point End Pass type
(mag) Time Alt. Az. Time Alt. Az. Time Alt. Az.
21 May -3.7 22:52:02 10° WNW 22:55:20 60° SSW 22:56:44 30° SE visible
22 May -3.8 22:02:00 10° WNW 22:05:20 85° SSW 22:08:26 12° ESE visible
22 May -2.0 23:39:05 10° W 23:41:13 20° SW 23:41:13 20° SW visible
23 May -2.7 22:48:44 10° W 22:51:43 31° SW 22:52:54 24° S visible
24 May -3.3 21:58:28 10° WNW 22:01:42 47° SSW 22:04:34 12° SE visible
25 May -1.6 22:45:40 10° W 22:47:44 16° SW 22:49:00 13° SSW visible
26 May -2.2 21:54:58 10° W 21:57:42 24° SW 22:00:26 10° SSE visible
28 May -1.2 21:52:05 10° WSW 21:53:21 12° SW 21:54:37 10° SSW visible
